| time (UTC) | temp F | wind direction | speed knots | gust knots | rain 1hr in | rain 24hr in | rain mn in | humidity % | barometer mb |
| 20260902081020 | 85 | 340 | 0.0 | 2.6 | 0.00 | 0.00 | 0.00 | 79 | 1015.5 |
| 20260902080520 | 85 | 340 | 0.0 | 3.5 | 0.00 | 0.00 | 0.00 | 79 | 1015.5 |
| 20260902080023 | 85 | 340 | 2.6 | 3.5 | 0.00 | 0.00 | 0.00 | 79 | 1015.5 |
| 20260902075518 | 85 | 340 | 1.7 | 3.5 | 0.00 | 0.00 | 0.00 | 78 | 1015.5 |
| 20260902075018 | 85 | 340 | 1.7 | 3.5 | 0.00 | 0.00 | 0.00 | 78 | 1015.6 |
| 20260902074517 | 85 | 340 | 0.9 | 3.5 | 0.00 | 0.00 | 0.00 | 78 | 1015.6 |
| 20260902074016 | 86 | 340 | 1.7 | 4.3 | 0.00 | 0.00 | 0.00 | 78 | 1015.7 |
| 20260902073516 | 86 | 339 | 2.6 | 4.3 | 0.00 | 0.00 | 0.00 | 78 | 1015.7 |
| 20260902073016 | 86 | 336 | 0.9 | 2.6 | 0.00 | 0.00 | 0.00 | 78 | 1015.7 |
| 20260902072515 | 86 | 336 | 0.9 | 2.6 | 0.00 | 0.00 | 0.00 | 78 | 1015.7 |
| 20260902072015 | 86 | 336 | 0.9 | 2.6 | 0.00 | 0.00 | 0.00 | 77 | 1015.7 |
| 20260902071514 | 86 | 336 | 0.9 | 2.6 | 0.00 | 0.00 | 0.00 | 77 | 1015.6 |
| 20260902071014 | 86 | 336 | 0.0 | 2.6 | 0.00 | 0.00 | 0.00 | 77 | 1015.6 |
| 20260902070514 | 86 | 336 | 1.7 | 3.5 | 0.00 | 0.00 | 0.00 | 77 | 1015.6 |
| 20260902070021 | 86 | 336 | 1.7 | 3.5 | 0.00 | 0.00 | 0.00 | 77 | 1015.7 |
| 20260902065513 | 85 | 336 | 0.9 | 2.6 | 0.00 | 0.00 | 0.00 | 77 | 1016.0 |
| 20260902065015 | 85 | 335 | 0.9 | 2.6 | 0.00 | 0.00 | 0.00 | 77 | 1016.0 |
| 20260902064514 | 85 | 335 | 1.7 | 2.6 | 0.00 | 0.00 | 0.00 | 77 | 1016.0 |
| 20260902064012 | 85 | 335 | 0.9 | 3.5 | 0.00 | 0.00 | 0.00 | 77 | 1015.9 |
| 20260902063513 | 85 | 335 | 1.7 | 4.3 | 0.00 | 0.00 | 0.00 | 77 | 1016.0 |
| 20260902063032 | 85 | 335 | 2.6 | 5.2 | 0.00 | 0.00 | 0.00 | 76 | 1016.0 |
| 20260902062512 | 85 | 336 | 1.7 | 3.5 | 0.00 | 0.00 | 0.00 | 76 | 1016.0 |
| 20260902062012 | 86 | 336 | 1.7 | 3.5 | 0.00 | 0.00 | 0.00 | 77 | 1016.1 |
| 20260902061512 | 86 | 303 | 0.9 | 2.6 | 0.00 | 0.00 | 0.00 | 77 | 1015.9 |
| 20260902061012 | 86 | 303 | 0.0 | 2.6 | 0.00 | 0.00 | 0.00 | 77 | 1016.0 |
| 20260902060512 | 86 | 303 | 0.0 | 3.5 | 0.00 | 0.00 | 0.00 | 77 | 1016.0 |
| 20260902060011 | 86 | 242 | 0.9 | 3.5 | 0.00 | 0.00 | 0.00 | 77 | 1015.9 |
| 20260902055511 | 86 | 240 | 0.9 | 3.5 | 0.00 | 0.00 | 0.00 | 77 | 1016.0 |
| 20260902055011 | 86 | 240 | 1.7 | 3.5 | 0.00 | 0.00 | 0.00 | 77 | 1016.0 |
| 20260902054513 | 86 | 242 | 0.9 | 5.2 | 0.00 | 0.00 | 0.00 | 77 | 1016.0 |
| 20260902054010 | 86 | 242 | 1.7 | 7.8 | 0.00 | 0.00 | 0.00 | 77 | 1016.1 |
| 20260902053511 | 87 | 152 | 2.6 | 9.6 | 0.00 | 0.00 | 0.00 | 78 | 1016.0 |
| 20260902053010 | 87 | 183 | 6.1 | 9.6 | 0.00 | 0.00 | 0.00 | 77 | 1016.0 |
| 20260902052509 | 87 | 150 | 5.2 | 8.7 | 0.00 | 0.00 | 0.00 | 77 | 1016.0 |
| 20260902052009 | 87 | 183 | 6.1 | 13.0 | 0.00 | 0.00 | 0.00 | 77 | 1016.1 |
| 20260902051509 | 87 | 186 | 6.1 | 13.0 | 0.00 | 0.00 | 0.00 | 77 | 1016.0 |
| 20260902051009 | 87 | 128 | 3.5 | 9.6 | 0.00 | 0.00 | 0.00 | 76 | 1016.0 |
| 20260902050511 | 87 | 187 | 4.3 | 9.6 | 0.00 | 0.00 | 0.00 | 76 | 1015.9 |
| 20260902050011 | 88 | 55 | 1.7 | 4.3 | 0.00 | 0.00 | 0.00 | 76 | 1015.9 |
| 20260902045508 | 88 | 104 | 1.7 | 5.2 | 0.00 | 0.00 | 0.00 | 76 | 1016.0 |
| 20260902045008 | 88 | 144 | 1.7 | 3.5 | 0.00 | 0.00 | 0.00 | 76 | 1016.0 |
| 20260902044508 | 88 | 89 | 0.9 | 5.2 | 0.00 | 0.00 | 0.00 | 75 | 1016.0 |
| 20260902044007 | 88 | 157 | 2.6 | 5.2 | 0.00 | 0.00 | 0.00 | 75 | 1015.9 |
| 20260902043507 | 88 | 71 | 1.7 | 3.5 | 0.00 | 0.00 | 0.00 | 74 | 1015.8 |
| 20260902043006 | 88 | 86 | 0.9 | 3.5 | 0.00 | 0.00 | 0.00 | 74 | 1016.0 |
| 20260902042508 | 88 | 135 | 0.9 | 3.5 | 0.00 | 0.00 | 0.00 | 74 | 1015.8 |
| 20260902042007 | 88 | 130 | 1.7 | 5.2 | 0.00 | 0.00 | 0.00 | 74 | 1015.8 |
| 20260902041506 | 88 | 130 | 1.7 | 5.2 | 0.00 | 0.00 | 0.00 | 74 | 1015.8 |
| 20260902041005 | 87 | 130 | 1.7 | 3.5 | 0.00 | 0.00 | 0.00 | 73 | 1015.7 |
| 20260902040505 | 87 | 131 | 1.7 | 5.2 | 0.00 | 0.00 | 0.00 | 73 | 1015.7 |
| 20260902040005 | 87 | 154 | 3.5 | 5.2 | 0.00 | 0.00 | 0.00 | 73 | 1015.7 |
| 20260902035503 | 87 | 132 | 1.7 | 3.5 | 0.00 | 0.00 | 0.00 | 75 | 1015.5 |
| 20260902035003 | 87 | 161 | 1.7 | 4.3 | 0.00 | 0.00 | 0.00 | 75 | 1015.4 |
| 20260902034503 | 87 | 122 | 1.7 | 3.5 | 0.00 | 0.00 | 0.00 | 76 | 1015.2 |
| 20260902034003 | 87 | 121 | 0.9 | 3.5 | 0.00 | 0.00 | 0.00 | 76 | 1015.2 |
| 20260902033502 | 87 | 100 | 0.9 | 3.5 | 0.00 | 0.00 | 0.00 | 77 | 1015.1 |
| 20260902033002 | 88 | 98 | 0.9 | 2.6 | 0.00 | 0.00 | 0.00 | 77 | 1015.1 |
| 20260902032502 | 87 | 94 | 0.0 | 3.5 | 0.00 | 0.00 | 0.00 | 77 | 1015.1 |
| 20260902032001 | 88 | 136 | 1.7 | 3.5 | 0.00 | 0.00 | 0.00 | 77 | 1014.9 |
| 20260902031508 | 88 | 99 | 0.9 | 3.5 | 0.00 | 0.00 | 0.00 | 76 | 1014.8 |
| 20260902031001 | 88 | 146 | 0.9 | 3.5 | 0.00 | 0.00 | 0.00 | 76 | 1014.7 |
| 20260902030505 | 88 | 146 | 1.7 | 3.5 | 0.00 | 0.00 | 0.00 | 76 | 1014.6 |
| 20260902030002 | 88 | 146 | 0.9 | 3.5 | 0.00 | 0.00 | 0.00 | 76 | 1014.6 |
| 20260902025501 | 88 | 145 | 1.7 | 3.5 | 0.00 | 0.00 | 0.00 | 76 | 1014.5 |
| 20260902025001 | 88 | 138 | 0.9 | 2.6 | 0.00 | 0.00 | 0.00 | 76 | 1014.4 |
| 20260902024500 | 88 | 140 | 0.9 | 2.6 | 0.00 | 0.00 | 0.00 | 76 | 1014.2 |
| 20260902024100 | 88 | 153 | 0.9 | 4.3 | 0.00 | 0.00 | 0.00 | 76 | 1014.1 |
| 20260902023559 | 87 | 159 | 0.9 | 4.3 | 0.00 | 0.00 | 0.00 | 76 | 1014.2 |
| 20260902023103 | 87 | 155 | 0.9 | 2.6 | 0.00 | 0.00 | 0.00 | 75 | 1014.0 |
| 20260902022602 | 87 | 155 | 0.9 | 4.3 | 0.00 | 0.00 | 0.00 | 75 | 1013.9 |
| 20260902022101 | 87 | 155 | 2.6 | 4.3 | 0.00 | 0.00 | 0.00 | 75 | 1013.9 |
| 20260902021601 | 88 | 141 | 2.6 | 5.2 | 0.00 | 0.00 | 0.00 | 75 | 1013.9 |
| 20260902021059 | 88 | 86 | 1.7 | 3.5 | 0.00 | 0.00 | 0.00 | 75 | 1013.7 |
| 20260902020600 | 88 | 150 | 1.7 | 5.2 | 0.00 | 0.00 | 0.00 | 75 | 1013.7 |
| 20260902015601 | 88 | 141 | 3.5 | 5.2 | 0.00 | 0.00 | 0.00 | 75 | 1013.7 |
| 20260902015059 | 88 | 98 | 0.9 | 5.2 | 0.00 | 0.00 | 0.00 | 75 | 1013.7 |
| 20260902014559 | 88 | 85 | 1.7 | 4.3 | 0.00 | 0.00 | 0.00 | 74 | 1013.7 |
| 20260902014057 | 88 | 190 | 1.7 | 4.3 | 0.00 | 0.00 | 0.00 | 74 | 1013.7 |
| 20260902013558 | 88 | 192 | 2.6 | 6.1 | 0.00 | 0.00 | 0.00 | 74 | 1013.6 |
| 20260902013158 | 88 | 144 | 1.7 | 6.1 | 0.00 | 0.00 | 0.00 | 74 | 1013.6 |
| 20260902012557 | 88 | 205 | 0.9 | 6.1 | 0.00 | 0.00 | 0.00 | 74 | 1013.7 |
| 20260902012057 | 88 | 142 | 1.7 | 6.1 | 0.00 | 0.00 | 0.00 | 74 | 1013.5 |
| 20260902011558 | 88 | 178 | 3.5 | 6.1 | 0.00 | 0.00 | 0.00 | 74 | 1013.5 |
| 20260902011058 | 88 | 189 | 3.5 | 5.2 | 0.00 | 0.00 | 0.00 | 74 | 1013.5 |
| 20260902010557 | 88 | 161 | 3.5 | 6.1 | 0.00 | 0.00 | 0.00 | 74 | 1013.6 |
| 20260902010100 | 88 | 142 | 2.6 | 7.8 | 0.00 | 0.00 | 0.00 | 74 | 1013.5 |
| 20260902005556 | 88 | 138 | 2.6 | 7.8 | 0.00 | 0.00 | 0.00 | 73 | 1013.6 |
| 20260902005057 | 88 | 203 | 3.5 | 6.1 | 0.00 | 0.00 | 0.00 | 74 | 1013.4 |
| 20260902004557 | 88 | 169 | 3.5 | 8.7 | 0.00 | 0.00 | 0.00 | 74 | 1013.3 |
| 20260902004056 | 88 | 131 | 4.3 | 8.7 | 0.00 | 0.00 | 0.00 | 73 | 1013.3 |
| 20260902003555 | 88 | 165 | 2.6 | 7.8 | 0.00 | 0.00 | 0.00 | 73 | 1013.2 |
| 20260902003056 | 89 | 126 | 3.5 | 7.8 | 0.00 | 0.00 | 0.00 | 73 | 1013.2 |
| 20260902002555 | 89 | 140 | 4.3 | 6.1 | 0.00 | 0.00 | 0.00 | 73 | 1013.1 |
| 20260902002055 | 89 | 131 | 1.7 | 7.8 | 0.00 | 0.00 | 0.00 | 72 | 1013.0 |
| 20260902001555 | 89 | 163 | 2.6 | 7.8 | 0.00 | 0.00 | 0.00 | 72 | 1013.0 |
| 20260902001054 | 89 | 162 | 2.6 | 7.0 | 0.00 | 0.00 | 0.00 | 72 | 1012.9 |
| 20260902000554 | 89 | 135 | 2.6 | 7.8 | 0.00 | 0.00 | 0.00 | 72 | 1012.9 |
| 20260902000054 | 89 | 150 | 2.6 | 7.0 | 0.00 | 0.00 | 0.00 | 71 | 1013.0 |
| 20260901235554 | 89 | 157 | 3.5 | 8.7 | 0.00 | 0.00 | 0.00 | 71 | 1012.8 |
| 20260901235055 | 90 | 131 | 7.0 | 8.7 | 0.00 | 0.00 | 0.00 | 69 | 1012.8 |
| 20260901234603 | 90 | 142 | 3.5 | 8.7 | 0.00 | 0.00 | 0.00 | 69 | 1012.8 |
| 20260901234055 | 90 | 123 | 3.5 | 8.7 | 0.00 | 0.00 | 0.00 | 69 | 1012.8 |
| 20260901233554 | 90 | 185 | 4.3 | 7.8 | 0.00 | 0.00 | 0.00 | 69 | 1012.8 |
| 20260901233053 | 90 | 170 | 6.1 | 9.6 | 0.00 | 0.00 | 0.00 | 69 | 1012.8 |
| 20260901232553 | 90 | 111 | 5.2 | 9.6 | 0.00 | 0.00 | 0.00 | 69 | 1012.5 |
| 20260901232057 | 90 | 128 | 4.3 | 9.6 | 0.00 | 0.00 | 0.00 | 67 | 1012.6 |
| 20260901231558 | 90 | 150 | 3.5 | 8.7 | 0.00 | 0.00 | 0.00 | 67 | 1012.6 |
| 20260901231052 | 90 | 153 | 3.5 | 8.7 | 0.00 | 0.00 | 0.00 | 66 | 1012.6 |
| 20260901230553 | 90 | 156 | 3.5 | 7.8 | 0.00 | 0.00 | 0.00 | 66 | 1012.6 |
| 20260901230105 | 90 | 124 | 4.3 | 8.7 | 0.00 | 0.00 | 0.00 | 66 | 1012.6 |
| 20260901225553 | 90 | 140 | 3.5 | 7.8 | 0.00 | 0.00 | 0.00 | 67 | 1012.4 |
| 20260901225052 | 90 | 139 | 4.3 | 7.8 | 0.00 | 0.00 | 0.00 | 69 | 1012.4 |
| 20260901224554 | 90 | 127 | 3.5 | 7.8 | 0.00 | 0.00 | 0.00 | 66 | 1012.4 |
| 20260901224054 | 90 | 171 | 3.5 | 7.8 | 0.00 | 0.00 | 0.00 | 67 | 1012.3 |
| 20260901223554 | 90 | 124 | 3.5 | 7.8 | 0.00 | 0.00 | 0.00 | 69 | 1012.4 |
| 20260901223050 | 91 | 125 | 5.2 | 7.8 | 0.00 | 0.00 | 0.00 | 68 | 1012.4 |
| 20260901222549 | 90 | 77 | 3.5 | 8.7 | 0.00 | 0.00 | 0.00 | 68 | 1012.4 |
| 20260901222050 | 90 | 148 | 4.3 | 9.6 | 0.00 | 0.00 | 0.00 | 70 | 1012.3 |
| 20260901221604 | 90 | 171 | 7.0 | 10.4 | 0.00 | 0.00 | 0.00 | 69 | 1012.5 |
| 20260901221048 | 90 | 163 | 4.3 | 10.4 | 0.00 | 0.00 | 0.00 | 71 | 1012.5 |
| 20260901220550 | 90 | 186 | 6.1 | 10.4 | 0.00 | 0.00 | 0.00 | 70 | 1012.5 |
| 20260901220047 | 90 | 179 | 3.5 | 9.6 | 0.00 | 0.00 | 0.00 | 71 | 1012.6 |
| 20260901215547 | 90 | 166 | 6.1 | 8.7 | 0.00 | 0.00 | 0.00 | 70 | 1012.6 |
| 20260901215046 | 90 | 163 | 4.3 | 9.6 | 0.00 | 0.00 | 0.00 | 71 | 1012.7 |
| 20260901214545 | 90 | 168 | 5.2 | 9.6 | 0.00 | 0.00 | 0.00 | 70 | 1012.8 |
| 20260901214044 | 91 | 126 | 3.5 | 9.6 | 0.00 | 0.00 | 0.00 | 71 | 1012.9 |
| 20260901213545 | 90 | 103 | 3.5 | 7.8 | 0.00 | 0.00 | 0.00 | 70 | 1012.9 |
| 20260901213044 | 90 | 80 | 2.6 | 9.6 | 0.00 | 0.00 | 0.00 | 71 | 1012.9 |
| 20260901212541 | 90 | 136 | 4.3 | 9.6 | 0.00 | 0.00 | 0.00 | 72 | 1013.1 |
| 20260901212041 | 90 | 144 | 3.5 | 7.8 | 0.00 | 0.00 | 0.00 | 73 | 1013.1 |
| 20260901211540 | 89 | 88 | 4.3 | 9.6 | 0.00 | 0.00 | 0.00 | 73 | 1013.1 |
| 20260901211039 | 89 | 148 | 4.3 | 10.4 | 0.00 | 0.00 | 0.00 | 73 | 1013.1 |
| 20260901210540 | 90 | 109 | 3.5 | 7.8 | 0.00 | 0.00 | 0.00 | 72 | 1013.1 |
| 20260901210038 | 91 | 141 | 3.5 | 7.8 | 0.00 | 0.00 | 0.00 | 71 | 1013.1 |
| 20260901205537 | 91 | 116 | 3.5 | 8.7 | 0.00 | 0.00 | 0.00 | 70 | 1013.3 |
| 20260901205036 | 91 | 61 | 4.3 | 8.7 | 0.00 | 0.00 | 0.00 | 70 | 1013.3 |
| 20260901204538 | 90 | 130 | 3.5 | 7.8 | 0.00 | 0.00 | 0.00 | 71 | 1013.3 |
| 20260901204033 | 90 | 85 | 3.5 | 9.6 | 0.00 | 0.00 | 0.00 | 72 | 1013.4 |
| 20260901203533 | 90 | 155 | 4.3 | 9.6 | 0.00 | 0.00 | 0.00 | 72 | 1013.6 |
| 20260901203033 | 90 | 164 | 4.3 | 9.6 | 0.00 | 0.00 | 0.00 | 72 | 1013.5 |
| 20260901202533 | 90 | 178 | 4.3 | 9.6 | 0.00 | 0.00 | 0.00 | 73 | 1013.7 |
| 20260901202034 | 90 | 112 | 4.3 | 9.6 | 0.00 | 0.00 | 0.00 | 72 | 1013.7 |
| 20260901201532 | 90 | 66 | 4.3 | 9.6 | 0.00 | 0.00 | 0.00 | 73 | 1013.8 |
| 20260901201032 | 90 | 136 | 5.2 | 9.6 | 0.00 | 0.00 | 0.00 | 73 | 1014.0 |
| 20260901200531 | 90 | 109 | 3.5 | 9.6 | 0.00 | 0.00 | 0.00 | 73 | 1013.9 |
| 20260901200032 | 90 | 135 | 5.2 | 11.3 | 0.00 | 0.00 | 0.00 | 72 | 1013.9 |
| 20260901195532 | 90 | 115 | 3.5 | 11.3 | 0.00 | 0.00 | 0.00 | 72 | 1014.0 |
| 20260901195031 | 90 | 89 | 4.3 | 7.8 | 0.00 | 0.00 | 0.00 | 72 | 1013.9 |
| 20260901194531 | 90 | 144 | 2.6 | 8.7 | 0.00 | 0.00 | 0.00 | 72 | 1014.1 |